x
x
x Bekijk categorieën x Categorieën MENU
of
Je zoekt nu binnen {{$data.getCategoryName() | lowercase}} (verwijderen)
{{ $data.getCategoryName() }}
×
{ "valueFormat": "[[cg.view.page.base.SearchPanelBehavior.cleanSearchText(value.getTerm())]]" } off Zoek naar producten... Zoek naar een product binnen {{$data.getCategoryName() | lowercase}}... Zoek naar producten... Zoek... Zoek naar producten...
Categorieën x Sluiten

Bresser Comfort 5-in-1 weerstation (Kleur: zwart)

Sorteer op
Filter op
{ "key": "AIzaSyD_EPGGy6MhyvDOUNOoI0zXEA5cugabn9Q", "clientId": "vergelijknl-171308", "locale": "nl_NL" }
{} Vind winkels in de buurt
Belangrijke eigenschappen
Reviews Bresser Comfort 5-in-1 weerstation (Kleur: zwart)
{{$data.getAverageRating() | rating}}/10
{{$data.getNumberOfReviews() === 0 ? "0" : $data.getNumberOfReviews()}} review{{$data.getNumberOfReviews() === 1 ? "" : "s"}}
Schrijf een review
?
{{0 === 0 ? "0" : 0}} review{{0 === 1 ? "" : "s"}}
Schrijf als eerste een review!
Prijsontwikkeling
1 maand 3 maanden 6 maanden 1 jaar
Specificaties Bresser Comfort 5-in-1 weerstation (Kleur: zwart)
{{$data.getTitle()}}
  • {{$data.getLabel()}}{{$data.getValue()}}
Toon alle specificaties Toon minder specificaties
Anderen bekeken ook
Bresser Comfort 5-in-1 weerstation (Kleur: zwart)
  • https://pc.vergelijk.nl/500x500/207214935.jpg?ts=1
  • https://pc.vergelijk.nl/500x500/207214942.jpg?ts=1
  • https://pc.vergelijk.nl/500x500/207214939.jpg?ts=1
  • https://pc.vergelijk.nl/500x500/207214940.jpg?ts=1
  • https://pc.vergelijk.nl/500x500/207214937.jpg?ts=1
Bresser Bresser Comfort 5-in-1 weerstation (Kleur: zwart) Comfort 5-in-1 weerstation (Kleur: zwart) Comfort 5-in-1 weerstation (Kleur: zwart) Groot scherm: met het grote 7,3 inch kleurendisplay van het draadloze weerstation 5-in-1 heb je alle belangrijke functies in één oogopslag. Zes verschillende qua kleur gescheiden gebieden ondersteunen de zichtbaarheid van de toch al overzichtelijke weergave. Het hoogwaardige lcd-display wordt doorlopend verlicht (bij netvoeding) en kan optioneel via de geïntegreerde lichtsensor worden aangestuurd. 5-in-1 buitensensensor: de 5-in-1 buitensensor geeft je actuele informatie over temperatuur, luchtvochtigheid, luchtdruk, windsnelheid met windrichting en neerslag aan. Het historische geheugen maakt achteraf ophalen van eerdere waarden van de laatste uren mogelijk. Veel functies: het draadloze weerstation 5-in-1 biedt naast meetwaarden nog een wek-/alarmfunctie, een vorst-/ijswaarschuwing, radiogestuurde tijd- en datuminstelling (DCF), weergave van de huidige maanfase, Beaufort-index, hitte-index, dauwpunt en een 12-uurs weersvoorspelling Technische gegevens Station: 202 x 138 x 38 mm / bu (16)
  • 04007922052335
  • 7002550CM3000
3
good_buy
  • Design
    • Kleur: Zwart, Grijs
    • Materiaal: Synthetisch, Kunststof
  • Technische details
    • Outdoor sensors range: 150 m
    • Weerstations opties: Klok functie , Alarmfunctie
    • Measuring functions: Neerslagmeter, Windrichting, Binnenthermometer, Binnenhygrometer, Hygrometer, Barometer, Thermometer, Windsnelheidmeter
    • Alarm function: Ja
    • DCF radio clock: Ja
    • Measuring functions alarms: Ja
    • Type stroombron: Batterij/Accu, Accu
    • Snoozefunctie: Ja
    • Weather forecast: Ja
  • Overig
    • Clock function: Ja
  • Algemene kenmerken
    • Materiaal behuizing: Kunststof
  • Gewicht en omvang
    • Breedte (cm): 20 cm
  • Energie
    • Number of batteries (receiver): 3
    • Number of batteries (sensor): 3
  • Inhoud van de verpakking
    • Gebruikershandleiding: Ja
  • Accu/Batterij
    • Batterijtype: AA (LR06)
    • Batterijvoltage: 1.5 V
  • Beeldscherm
    • Geìntegreerde display: Ja
  • 77.95 159.00 EUR 3
    3
    • Amazon.nl Amazon.nl
      5.062893081761007 (2)
      Groot scherm: met het grote 7,3 inch kleurendisplay van het draadloze weerstation 5-in-1 heb je alle belangrijke functies in één oogopsla...77.95, 24u (offer_sdt_24_hrs)
      1
    • Bol Plaza NL Bol Plaza NL
      Bresser 5-in-1 Weerstation - Met Multifunctionele Buitensensor - Met Regen- en Windmeter - Zwart77.95, 24u (offer_sdt_24_hrs)
      1
    • Kamera Express Kamera Express
      8.471035725207125 (639)
      • //sc.vergelijk.nl/s/5.20.11/images/content/qualitymarks/THUISWINKEL.png
      Het Bresser 5-in-1 Comfort Weather Center is een weerstation met een uitgebreide informatieservice in een compact ontwerp.159.00, 24u (offer_sdt_24_hrs)
      1
  • 0 0
    • TFA-Dostmann TFA 20.2010.60 Metallic digitale weerstation
      • https://pc.vergelijk.nl/500x500/210007814.jpg?ts=1
      • https://pc.vergelijk.nl/500x500/161418262.jpg?ts=1
      • https://pc.vergelijk.nl/500x500/236979221.jpg?ts=1
      TFA-Dostmann TFA-Dostmann TFA 20.2010.60 Metallic digitale weerstation TFA 20.2010.60 Metallic digitale weerstation TFA 20.2010.60 Metallic digitale weerstation Mechanisch buiten-weerstation (2)
      TFA-Dostmann TFA 20.2010.60 Metallic digitale weerstation
      • 04009816502728
      • 20.2010.60
      1
    • Smartwares SHS-54000
      • https://pc.vergelijk.nl/500x500/131102701.jpg?ts=1
      • https://pc.vergelijk.nl/500x500/144431633.jpg?ts=1
      • https://pc.vergelijk.nl/500x500/146890768.jpg?ts=1
      • https://pc.vergelijk.nl/500x500/144431632.jpg?ts=1
      • https://pc.vergelijk.nl/500x500/144431630.jpg?ts=1
      Smartwares Smartwares SHS-54000 SHS-54000 SHS-54000 Draadloos weerstation; compatibel met Wizard, 868 MHz / dubbele communicatie Multifunctioneel led-display/tijd en kalender functie/alarmfunctie/zonsop- en ondergang/maankalender enz. Thermo-/ en hygrometer/stabiele verbinding en verhoogd bereik. Windmes/combinatie van zonne-energie en AA-batterijen. regenmeter, de neerslag altijd in het oog hebben en markiezen automatisch inschuiven indien nodig (met HomeWizard). (9)
      Smartwares SHS-54000
      • 08711658045702
      • 08719958103108
      • 2258670
      • SHS-54000
      2
    • Technoline WL1025 Zwart Batterij/Accu
      • https://pc.vergelijk.nl/500x500/211793435.jpg?ts=1
      • https://pc.vergelijk.nl/500x500/211793437.jpg?ts=1
      • https://pc.vergelijk.nl/500x500/237795787.jpg?ts=1
      Technoline Technoline WL1025 Zwart Batterij/Accu WL1025 Zwart Batterij/Accu WL1025 Zwart Batterij/Accu Weergave van CO2-metingen en CO2-trendwaarden 24-uurs historie van de gemeten CO2-waarden als staafdiagram Alarmfunctie voor hoge CO2-waarden Kalibratieoptie voor de CO2-meting Het huidige CO2-gehalte in de lucht wordt weergegeven met de kleuren rood, groen en geel als luchtkwaliteitssymbolen: donkergroen = UITSTEKEND, lichtgroen = GOED, geel = GEMIDDELD, rood = SLECHT (begint te knipperen bij 21 ppm om aan te geven dat het erg slecht is lucht signaal) (1)
      Technoline WL1025 Zwart Batterij/Accu
      • 04029665410258
      • WL 1025
      2
    • Technoline Thermometer / Hygrometer - Technoline WA 3050
      • https://pc.vergelijk.nl/500x500/170086374.jpg?ts=1
      Technoline Technoline Thermometer / Hygrometer - Technoline WA 3050 Thermometer / Hygrometer - Technoline WA 3050 Thermometer / Hygrometer - Technoline WA 3050 analoge thermometer analoge temperatuurweergave analoge vochtigheidsweergave Meetbereik temperatuur: -3°C en +5°C Meetbereik luchtvochtigheid: 2% tot 1% (2)
      Technoline Thermometer / Hygrometer - Technoline WA 3050
      • 04029665430508
      2
    • min
      • Tue Mar 22 01:00:00 CET 2022 129.00
      • Wed Mar 23 01:00:00 CET 2022 99.98
      • Thu Mar 24 01:00:00 CET 2022 99.98
      • Fri Mar 25 00:00:00 CET 2022 99.98
      • Sat Mar 26 00:00:00 CET 2022 99.98
      • Sun Mar 27 00:00:00 CET 2022 99.98
      • Mon Mar 28 02:00:00 CEST 2022 99.98
      • Tue Mar 29 00:00:00 CEST 2022 99.98
      • Wed Mar 30 00:00:00 CEST 2022 99.98
      • Thu Mar 31 02:00:00 CEST 2022 99.98
      • Fri Apr 01 02:00:00 CEST 2022 100.97
      • Sat Apr 02 00:00:00 CEST 2022 100.97
      • Sun Apr 03 02:00:00 CEST 2022 102.98
      • Mon Apr 04 02:00:00 CEST 2022 102.95
      • Tue Apr 05 02:00:00 CEST 2022 102.95
      • Wed Apr 06 00:00:00 CEST 2022 102.95
      • Thu Apr 07 02:00:00 CEST 2022 105.87
      • Fri Apr 08 02:00:00 CEST 2022 106.92
      • Sat Apr 09 02:00:00 CEST 2022 107.97
      • Sun Apr 10 00:00:00 CEST 2022 107.97
      • Mon Apr 11 02:00:00 CEST 2022 107.95
      • Tue Apr 12 00:00:00 CEST 2022 107.95
      • Wed Apr 13 02:00:00 CEST 2022 107.93
      • Thu Apr 14 02:00:00 CEST 2022 118.55
      • Fri Apr 15 02:00:00 CEST 2022 118.55
      • Sat Apr 16 00:00:00 CEST 2022 118.55
      • Sun Apr 17 00:00:00 CEST 2022 118.55
      • Mon Apr 18 00:00:00 CEST 2022 118.55
      • Tue Apr 19 02:00:00 CEST 2022 118.55
      • Wed Apr 20 00:00:00 CEST 2022 118.55
      • Thu Apr 21 00:00:00 CEST 2022 118.55
      • Fri Apr 22 00:00:00 CEST 2022 118.55
      • Sat Apr 23 00:00:00 CEST 2022 118.55
      • Sun Apr 24 00:00:00 CEST 2022 118.55
      • Mon Apr 25 00:00:00 CEST 2022 118.55
      • Tue Apr 26 02:00:00 CEST 2022 116.00
      • Wed Apr 27 02:00:00 CEST 2022 116.00
      • Thu Apr 28 00:00:00 CEST 2022 116.00
      • Fri Apr 29 02:00:00 CEST 2022 99.98
      • Sat Apr 30 00:00:00 CEST 2022 99.98
      • Sun May 01 00:00:00 CEST 2022 99.98
      • Mon May 02 00:00:00 CEST 2022 99.98
      • Tue May 03 00:00:00 CEST 2022 99.98
      • Wed May 04 02:00:00 CEST 2022 99.98
      • Thu May 05 00:00:00 CEST 2022 99.98
      • Fri May 06 02:00:00 CEST 2022 99.00
      • Sat May 07 02:00:00 CEST 2022 99.00
      • Sun May 08 02:00:00 CEST 2022 99.00
      • Mon May 09 00:00:00 CEST 2022 99.00
      • Tue May 10 00:00:00 CEST 2022 99.00
      • Wed May 11 00:00:00 CEST 2022 99.00
      • Thu May 12 02:00:00 CEST 2022 99.00
      • Fri May 13 02:00:00 CEST 2022 99.00
      • Sat May 14 00:00:00 CEST 2022 99.00
      • Sun May 15 00:00:00 CEST 2022 99.00
      • Mon May 16 00:00:00 CEST 2022 99.00
      • Tue May 17 00:00:00 CEST 2022 99.00
      • Wed May 18 02:00:00 CEST 2022 99.00
      • Thu May 19 02:00:00 CEST 2022 99.00
      • Fri May 20 00:00:00 CEST 2022 99.00
      • Sat May 21 00:00:00 CEST 2022 99.00
      • Sun May 22 00:00:00 CEST 2022 99.00
      • Mon May 23 02:00:00 CEST 2022 99.00
      • Tue May 24 02:00:00 CEST 2022 99.00
      • Wed May 25 00:00:00 CEST 2022 99.00
      • Thu May 26 00:00:00 CEST 2022 99.00
      • Fri May 27 00:00:00 CEST 2022 99.00
      • Sat May 28 00:00:00 CEST 2022 99.00
      • Sun May 29 00:00:00 CEST 2022 99.00
      • Mon May 30 00:00:00 CEST 2022 99.00
      • Tue May 31 02:00:00 CEST 2022 99.00
      • Wed Jun 01 00:00:00 CEST 2022 99.00
      • Thu Jun 02 00:00:00 CEST 2022 99.00
      • Fri Jun 03 00:00:00 CEST 2022 99.00
      • Sat Jun 04 00:00:00 CEST 2022 99.00
      • Sun Jun 05 02:00:00 CEST 2022 109.95
      • Mon Jun 06 02:00:00 CEST 2022 99.00
      • Tue Jun 07 00:00:00 CEST 2022 99.00
      • Wed Jun 08 02:00:00 CEST 2022 99.00
      • Thu Jun 09 00:00:00 CEST 2022 99.00
      • Fri Jun 10 00:00:00 CEST 2022 99.00
      • Sat Jun 11 00:00:00 CEST 2022 99.00
      • Sun Jun 12 00:00:00 CEST 2022 99.00
      • Mon Jun 13 00:00:00 CEST 2022 99.00
      • Tue Jun 14 02:00:00 CEST 2022 109.95
      • Wed Jun 15 02:00:00 CEST 2022 99.00
      • Thu Jun 16 00:00:00 CEST 2022 99.00
      • Fri Jun 17 02:00:00 CEST 2022 99.00
      • Sat Jun 18 00:00:00 CEST 2022 99.00
      • Sun Jun 19 00:00:00 CEST 2022 99.00
      • Mon Jun 20 00:00:00 CEST 2022 99.00
      • Tue Jun 21 02:00:00 CEST 2022 89.00
      • Wed Jun 22 02:00:00 CEST 2022 86.00
      • Thu Jun 23 02:00:00 CEST 2022 89.00
      • Fri Jun 24 00:00:00 CEST 2022 89.00
      • Sat Jun 25 00:00:00 CEST 2022 89.00
      • Sun Jun 26 00:00:00 CEST 2022 89.00
      • Mon Jun 27 00:00:00 CEST 2022 89.00
      • Tue Jun 28 00:00:00 CEST 2022 89.00
      • Wed Jun 29 00:00:00 CEST 2022 89.00
      • Thu Jun 30 02:00:00 CEST 2022 89.00
      • Fri Jul 01 00:00:00 CEST 2022 89.00
      • Sat Jul 02 02:00:00 CEST 2022 89.00
      • Sun Jul 03 02:00:00 CEST 2022 89.00
      • Mon Jul 04 00:00:00 CEST 2022 89.00
      • Tue Jul 05 00:00:00 CEST 2022 89.00
      • Wed Jul 06 02:00:00 CEST 2022 84.50
      • Thu Jul 07 00:00:00 CEST 2022 84.50
      • Fri Jul 08 00:00:00 CEST 2022 84.50
      • Sat Jul 09 00:00:00 CEST 2022 84.50
      • Sun Jul 10 00:00:00 CEST 2022 84.50
      • Mon Jul 11 00:00:00 CEST 2022 84.50
      • Tue Jul 12 02:00:00 CEST 2022 84.00
      • Wed Jul 13 00:00:00 CEST 2022 84.00
      • Thu Jul 14 02:00:00 CEST 2022 84.00
      • Fri Jul 15 00:00:00 CEST 2022 84.00
      • Sat Jul 16 02:00:00 CEST 2022 84.00
      • Sun Jul 17 00:00:00 CEST 2022 84.00
      • Mon Jul 18 02:00:00 CEST 2022 84.00
      • Tue Jul 19 02:00:00 CEST 2022 84.00
      • Wed Jul 20 02:00:00 CEST 2022 89.00
      • Thu Jul 21 02:00:00 CEST 2022 88.10
      • Fri Jul 22 02:00:00 CEST 2022 84.00
      • Sat Jul 23 00:00:00 CEST 2022 84.00
      • Sun Jul 24 00:00:00 CEST 2022 84.00
      • Mon Jul 25 02:00:00 CEST 2022 89.00
      • Tue Jul 26 00:00:00 CEST 2022 89.00
      • Wed Jul 27 02:00:00 CEST 2022 84.00
      • Thu Jul 28 00:00:00 CEST 2022 84.00
      • Fri Jul 29 00:00:00 CEST 2022 84.00
      • Sat Jul 30 02:00:00 CEST 2022 84.00
      • Sun Jul 31 02:00:00 CEST 2022 84.00
      • Mon Aug 01 02:00:00 CEST 2022 84.00
      • Tue Aug 02 00:00:00 CEST 2022 84.00
      • Wed Aug 03 00:00:00 CEST 2022 84.00
      • Thu Aug 04 00:00:00 CEST 2022 84.00
      • Fri Aug 05 02:00:00 CEST 2022 83.00
      • Sat Aug 06 00:00:00 CEST 2022 83.00
      • Sun Aug 07 00:00:00 CEST 2022 83.00
      • Mon Aug 08 00:00:00 CEST 2022 83.00
      • Tue Aug 09 00:00:00 CEST 2022 83.00
      • Wed Aug 10 00:00:00 CEST 2022 83.00
      • Thu Aug 11 00:00:00 CEST 2022 83.00
      • Fri Aug 12 00:00:00 CEST 2022 83.00
      • Sat Aug 13 00:00:00 CEST 2022 83.00
      • Sun Aug 14 00:00:00 CEST 2022 83.00
      • Mon Aug 15 00:00:00 CEST 2022 83.00
      • Tue Aug 16 00:00:00 CEST 2022 83.00
      • Wed Aug 17 00:00:00 CEST 2022 83.00
      • Thu Aug 18 02:00:00 CEST 2022 83.00
      • Fri Aug 19 00:00:00 CEST 2022 83.00
      • Sat Aug 20 02:00:00 CEST 2022 84.00
      • Sun Aug 21 02:00:00 CEST 2022 88.10
      • Mon Aug 22 00:00:00 CEST 2022 88.10
      • Tue Aug 23 02:00:00 CEST 2022 88.10
      • Wed Aug 24 00:00:00 CEST 2022 88.10
      • Thu Aug 25 00:00:00 CEST 2022 88.10
      • Fri Aug 26 02:00:00 CEST 2022 89.00
      • Sat Aug 27 00:00:00 CEST 2022 89.00
      • Sun Aug 28 00:00:00 CEST 2022 89.00
      • Mon Aug 29 02:00:00 CEST 2022 89.00
      • Tue Aug 30 02:00:00 CEST 2022 89.00
      • Wed Aug 31 02:00:00 CEST 2022 89.00
      • Thu Sep 01 00:00:00 CEST 2022 89.00
      • Fri Sep 02 02:00:00 CEST 2022 89.00
      • Sat Sep 03 02:00:00 CEST 2022 79.00
      • Sun Sep 04 00:00:00 CEST 2022 79.00
      • Mon Sep 05 00:00:00 CEST 2022 79.00
      • Tue Sep 06 02:00:00 CEST 2022 79.00
      • Wed Sep 07 00:00:00 CEST 2022 79.00
      • Thu Sep 08 00:00:00 CEST 2022 79.00
      • Fri Sep 09 00:00:00 CEST 2022 79.00
      • Sat Sep 10 00:00:00 CEST 2022 79.00
      • Sun Sep 11 00:00:00 CEST 2022 79.00
      • Mon Sep 12 00:00:00 CEST 2022 79.00
      • Tue Sep 13 00:00:00 CEST 2022 79.00
      • Wed Sep 14 00:00:00 CEST 2022 79.00
      • Thu Sep 15 02:00:00 CEST 2022 79.00
      • Fri Sep 16 00:00:00 CEST 2022 79.00
      • Sat Sep 17 00:00:00 CEST 2022 79.00
      • Sun Sep 18 00:00:00 CEST 2022 79.00
      • Mon Sep 19 00:00:00 CEST 2022 79.00
      • Tue Sep 20 00:00:00 CEST 2022 79.00
      • Wed Sep 21 02:00:00 CEST 2022 79.00
      • Thu Sep 22 00:00:00 CEST 2022 79.00
      • Fri Sep 23 00:00:00 CEST 2022 79.00
      • Sat Sep 24 00:00:00 CEST 2022 79.00
      • Sun Sep 25 00:00:00 CEST 2022 79.00
      • Mon Sep 26 02:00:00 CEST 2022 79.00
      • Tue Sep 27 02:00:00 CEST 2022 79.00
      • Wed Sep 28 02:00:00 CEST 2022 79.00
      • Thu Sep 29 00:00:00 CEST 2022 79.00
      • Fri Sep 30 00:00:00 CEST 2022 79.00
      • Sat Oct 01 00:00:00 CEST 2022 79.00
      • Sun Oct 02 00:00:00 CEST 2022 79.00
      • Mon Oct 03 00:00:00 CEST 2022 79.00
      • Tue Oct 04 02:00:00 CEST 2022 79.00
      • Wed Oct 05 02:00:00 CEST 2022 89.05
      • Thu Oct 06 02:00:00 CEST 2022 79.00
      • Fri Oct 07 02:00:00 CEST 2022 75.00
      • Sat Oct 08 02:00:00 CEST 2022 75.00
      • Sun Oct 09 00:00:00 CEST 2022 75.00
      • Mon Oct 10 02:00:00 CEST 2022 75.00
      • Tue Oct 11 00:00:00 CEST 2022 75.00
      • Wed Oct 12 00:00:00 CEST 2022 75.00
      • Thu Oct 13 00:00:00 CEST 2022 75.00
      • Fri Oct 14 00:00:00 CEST 2022 75.00
      • Sat Oct 15 00:00:00 CEST 2022 75.00
      • Sun Oct 16 00:00:00 CEST 2022 75.00
      • Mon Oct 17 00:00:00 CEST 2022 75.00
      • Tue Oct 18 00:00:00 CEST 2022 75.00
      • Wed Oct 19 00:00:00 CEST 2022 75.00
      • Thu Oct 20 00:00:00 CEST 2022 75.00
      • Fri Oct 21 00:00:00 CEST 2022 75.00
      • Sat Oct 22 02:00:00 CEST 2022 75.00
      • Sun Oct 23 02:00:00 CEST 2022 75.00
      • Mon Oct 24 02:00:00 CEST 2022 89.05
      • Tue Oct 25 02:00:00 CEST 2022 85.00
      • Wed Oct 26 02:00:00 CEST 2022 85.00
      • Thu Oct 27 00:00:00 CEST 2022 85.00
      • Fri Oct 28 00:00:00 CEST 2022 85.00
      • Sat Oct 29 02:00:00 CEST 2022 85.00
      • Sun Oct 30 00:00:00 CEST 2022 85.00
      • Mon Oct 31 00:00:00 CET 2022 85.00
      • Tue Nov 01 00:00:00 CET 2022 85.00
      • Wed Nov 02 00:00:00 CET 2022 85.00
      • Thu Nov 03 01:00:00 CET 2022 85.00
      • Fri Nov 04 00:00:00 CET 2022 85.00
      • Sat Nov 05 00:00:00 CET 2022 85.00
      • Sun Nov 06 00:00:00 CET 2022 85.00
      • Mon Nov 07 00:00:00 CET 2022 85.00
      • Tue Nov 08 00:00:00 CET 2022 85.00
      • Wed Nov 09 01:00:00 CET 2022 85.00
      • Thu Nov 10 00:00:00 CET 2022 85.00
      • Fri Nov 11 00:00:00 CET 2022 85.00
      • Sat Nov 12 00:00:00 CET 2022 85.00
      • Sun Nov 13 00:00:00 CET 2022 85.00
      • Mon Nov 14 00:00:00 CET 2022 85.00
      • Tue Nov 15 00:00:00 CET 2022 85.00
      • Wed Nov 16 01:00:00 CET 2022 85.00
      • Thu Nov 17 01:00:00 CET 2022 80.00
      • Fri Nov 18 01:00:00 CET 2022 80.00
      • Sat Nov 19 01:00:00 CET 2022 80.00
      • Sun Nov 20 00:00:00 CET 2022 80.00
      • Mon Nov 21 00:00:00 CET 2022 80.00
      • Tue Nov 22 00:00:00 CET 2022 80.00
      • Wed Nov 23 01:00:00 CET 2022 80.00
      • Thu Nov 24 00:00:00 CET 2022 80.00
      • Fri Nov 25 01:00:00 CET 2022 80.00
      • Sat Nov 26 00:00:00 CET 2022 80.00
      • Sun Nov 27 00:00:00 CET 2022 80.00
      • Mon Nov 28 00:00:00 CET 2022 80.00
      • Tue Nov 29 00:00:00 CET 2022 80.00
      • Wed Nov 30 01:00:00 CET 2022 80.00
      • Thu Dec 01 00:00:00 CET 2022 80.00
      • Fri Dec 02 01:00:00 CET 2022 80.00
      • Sat Dec 03 00:00:00 CET 2022 80.00
      • Sun Dec 04 00:00:00 CET 2022 80.00
      • Mon Dec 05 00:00:00 CET 2022 80.00
      • Tue Dec 06 01:00:00 CET 2022 80.00
      • Wed Dec 07 00:00:00 CET 2022 80.00
      • Thu Dec 08 01:00:00 CET 2022 77.95
      • Fri Dec 09 00:00:00 CET 2022 77.95
      • Sat Dec 10 00:00:00 CET 2022 77.95
    • partner@vergelijk.nl